Weather History for PAAK - August, 2013

Change the Weather History Date:

Saturday, August 24, 2013

  Actual Average (PADK) Record (PADK)
Temperature  
Mean Temperature 60 °F -  
Max Temperature 64 °F 55 °F 68 °F (2012)
Min Temperature 51 °F 44 °F 37 °F (1971)
Degree Days  
Heating Degree Days 6    
Growing Degree Days 10 (Base 50)    
Moisture  
Dew Point 55 °F    
Average Humidity 87    
Maximum Humidity 94    
Minimum Humidity 82    
Precipitation  
Precipitation 0.00 in - - ()
Sea Level Pressure  
Sea Level Pressure 29.92 in    
Wind  
Wind Speed 12 mph (SW)    
Max Wind Speed 26 mph    
Max Gust Speed 33 mph    
Visibility 9 miles    
Events      
Averages and records for this station are not official NWS values.
T = Trace of Precipitation, MM = Missing Value Source: NWS Daily Summary

Daily Weather History Graph

Daily Weather History Graph

Search for Another Location

Airport or City:

Trip Planner

Search our weather history database for the weather conditions in past years. The results will help you decide how hot, cold, wet, or windy it might be!

Date:

Astronomy

Aug. 24, 2013 Rise Set
Actual Time 7:35 AM HDT 9:40 PM HDT
Civil Twilight 6:59 AM HDT 10:17 PM HDT
Nautical Twilight 6:13 AM HDT 11:02 PM HDT
Astronomical Twilight 5:20 AM HDT 11:55 PM HDT
Moon 11:00 PM HDT (8/24) 12:30 PM HDT (8/24)
Length of Visible Light 15h 18m
Length of Day
14h 05m
Waning Gibbous, 83% of the Moon is Illuminated
Aug 24
Waning Gibbous
Aug 28
Last Quarter
Sep 5
New
Sep 12
First Quarter
Sep 19
Full

Hourly Weather History & Observations

Time (HDT) Temp. Dew Point Humidity Pressure Visibility Wind Dir Wind Speed Gust Speed Precip Events Conditions
12:16 AM 60.8 °F 57.2 °F 88% 29.95 in 10.0 mi SSW 16.1 mph - N/A   Overcast
12:36 AM 60.8 °F 57.2 °F 88% 29.94 in 10.0 mi SSW 6.9 mph 18.4 mph N/A   Overcast
12:56 AM 62.6 °F 57.2 °F 82% 29.94 in 10.0 mi SW 15.0 mph 20.7 mph N/A   Overcast
1:16 AM 60.8 °F 57.2 °F 88% 29.94 in 10.0 mi SW 17.3 mph - N/A   Overcast
1:36 AM 62.6 °F 57.2 °F 82% 29.94 in 10.0 mi SW 8.1 mph 19.6 mph N/A   Overcast
1:56 AM 60.8 °F 55.4 °F 82% 29.94 in 10.0 mi WSW 15.0 mph 26.5 mph N/A   Overcast
2:16 AM 62.6 °F 57.2 °F 82% 29.94 in 10.0 mi Calm Calm - N/A   Overcast
2:36 AM 60.8 °F 57.2 °F 88% 29.94 in 5.0 mi Calm Calm - N/A   Overcast
2:56 AM 60.8 °F 57.2 °F 88% 29.94 in 10.0 mi South 3.5 mph - N/A   Overcast
3:16 AM 60.8 °F 57.2 °F 88% 29.94 in 10.0 mi WSW 15.0 mph - N/A   Overcast
3:36 AM 62.6 °F 57.2 °F 82% 29.94 in 10.0 mi SW 13.8 mph 18.4 mph N/A   Overcast
3:56 AM 62.6 °F 57.2 °F 82% 29.94 in 10.0 mi WSW 15.0 mph 20.7 mph N/A   Overcast
4:16 AM 62.6 °F 57.2 °F 82% 29.94 in 10.0 mi SW 15.0 mph 20.7 mph N/A   Overcast
4:36 AM 64.4 °F 60.8 °F 88% 29.94 in 10.0 mi SW 6.9 mph 18.4 mph N/A   Overcast
4:56 AM 62.6 °F 57.2 °F 82% 29.94 in 10.0 mi WSW 17.3 mph 23.0 mph N/A   Overcast
5:16 AM 62.6 °F 57.2 °F 82% 29.93 in 10.0 mi WSW 20.7 mph - N/A   Overcast
5:36 AM 64.4 °F 59.0 °F 83% 29.94 in 10.0 mi WSW 6.9 mph - N/A   Mostly Cloudy
5:56 AM 62.6 °F 59.0 °F 88% 29.94 in 10.0 mi Calm Calm - N/A   Mostly Cloudy
6:16 AM 62.6 °F 57.2 °F 82% 29.93 in 10.0 mi SW 11.5 mph - N/A   Overcast
6:36 AM 62.6 °F 59.0 °F 88% 29.93 in 10.0 mi SW 10.4 mph - N/A   Overcast
6:56 AM 60.8 °F 57.2 °F 88% 29.93 in 10.0 mi SW 16.1 mph - N/A   Overcast
7:16 AM 62.6 °F 57.2 °F 82% 29.93 in 10.0 mi SW 17.3 mph - N/A   Overcast
7:36 AM 62.6 °F 57.2 °F 82% 29.93 in 10.0 mi SW 11.5 mph - N/A   Overcast
7:56 AM 60.8 °F 55.4 °F 82% 29.94 in 10.0 mi SW 13.8 mph - N/A   Overcast
8:16 AM 60.8 °F 57.2 °F 88% 29.95 in 10.0 mi SSW 8.1 mph - N/A   Overcast
8:36 AM 59.0 °F 55.4 °F 88% 29.95 in 10.0 mi SW 9.2 mph - N/A   Overcast
8:56 AM 60.8 °F 55.4 °F 82% 29.95 in 10.0 mi SSW 12.7 mph - N/A   Overcast
9:16 AM 59.0 °F 55.4 °F 88% 29.95 in 10.0 mi SW 10.4 mph - N/A   Overcast
9:36 AM 59.0 °F 53.6 °F 82% 29.95 in 10.0 mi SW 12.7 mph 20.7 mph N/A   Overcast
9:56 AM 59.0 °F 53.6 °F 82% 29.95 in 10.0 mi SW 20.7 mph - N/A   Overcast
10:16 AM 60.8 °F 55.4 °F 82% 29.95 in 10.0 mi SSW 11.5 mph - N/A   Overcast
10:36 AM 60.8 °F 55.4 °F 82% 29.95 in 10.0 mi SSW 15.0 mph 19.6 mph N/A   Overcast
10:56 AM 59.0 °F 55.4 °F 88% 29.95 in 7.0 mi SSW 15.0 mph - N/A   Overcast
11:16 AM 59.0 °F 55.4 °F 88% 29.95 in 9.0 mi SSW 10.4 mph - N/A   Overcast
11:36 AM 57.2 °F 53.6 °F 88% 29.94 in 5.0 mi SSW 11.5 mph - N/A   Overcast
11:56 AM 57.2 °F 55.4 °F 94% 29.95 in 5.0 mi SSW 11.5 mph 19.6 mph N/A   Overcast
12:16 PM 59.0 °F 55.4 °F 88% 29.95 in 10.0 mi SSW 15.0 mph 19.6 mph N/A   Overcast
12:36 PM 57.2 °F 55.4 °F 94% 29.94 in 3.0 mi South 12.7 mph - N/A   Overcast
12:56 PM 59.0 °F 55.4 °F 88% 29.94 in 6.0 mi SSW 16.1 mph 21.9 mph N/A   Overcast
1:16 PM 59.0 °F 55.4 °F 88% 29.93 in 7.0 mi SSW 15.0 mph 19.6 mph N/A   Overcast
1:36 PM 57.2 °F 55.4 °F 94% 29.93 in 3.0 mi South 11.5 mph 17.3 mph N/A   Overcast
1:56 PM 57.2 °F 55.4 °F 94% 29.92 in 2.5 mi WSW 11.5 mph 19.6 mph N/A   Overcast
2:16 PM 59.0 °F 55.4 °F 88% 29.92 in 4.0 mi WNW 9.2 mph 17.3 mph N/A   Overcast
2:36 PM 59.0 °F 55.4 °F 88% 29.93 in 7.0 mi WSW 15.0 mph 21.9 mph N/A   Overcast
2:56 PM 57.2 °F 55.4 °F 94% 29.91 in 2.5 mi SW 18.4 mph 29.9 mph N/A   Overcast
3:16 PM 57.2 °F 55.4 °F 94% 29.91 in 5.0 mi SW 17.3 mph 26.5 mph N/A   Overcast
3:36 PM 57.2 °F 55.4 °F 94% 29.90 in 2.5 mi SSW 20.7 mph 27.6 mph N/A   Overcast
3:56 PM 57.2 °F 55.4 °F 94% 29.90 in 3.0 mi SW 17.3 mph 24.2 mph N/A   Overcast
4:16 PM 57.2 °F 53.6 °F 88% 29.90 in 2.5 mi SW 20.7 mph 29.9 mph N/A   Overcast
4:36 PM 59.0 °F 53.6 °F 82% 29.89 in 9.0 mi SW 18.4 mph 25.3 mph N/A   Overcast
4:56 PM 59.0 °F 53.6 °F 82% 29.89 in 9.0 mi SW 17.3 mph 29.9 mph N/A   Overcast
5:16 PM 59.0 °F 53.6 °F 82% 29.88 in 10.0 mi SW 21.9 mph 28.8 mph N/A   Mostly Cloudy
5:36 PM 57.2 °F 53.6 °F 88% 29.88 in 10.0 mi SW 20.7 mph 31.1 mph N/A   Clear
5:56 PM 57.2 °F 53.6 °F 88% 29.87 in 10.0 mi SSW 18.4 mph 26.5 mph N/A   Scattered Clouds
6:16 PM 57.2 °F 53.6 °F 88% 29.86 in 10.0 mi SW 26.5 mph 33.4 mph N/A   Mostly Cloudy
6:36 PM 57.2 °F 53.6 °F 88% 29.87 in 10.0 mi SW 17.3 mph 24.2 mph N/A   Overcast
6:56 PM 57.2 °F 53.6 °F 88% 29.87 in 10.0 mi SW 15.0 mph - N/A   Mostly Cloudy
7:16 PM 59.0 °F 53.6 °F 82% 29.88 in 10.0 mi WSW 16.1 mph 23.0 mph N/A   Scattered Clouds
7:36 PM 57.2 °F 53.6 °F 88% 29.88 in 10.0 mi WSW 15.0 mph - N/A   Partly Cloudy
7:56 PM 59.0 °F 53.6 °F 82% 29.88 in 10.0 mi SW 13.8 mph - N/A   Scattered Clouds
8:16 PM 59.0 °F 55.4 °F 88% 29.89 in 10.0 mi WSW 11.5 mph - N/A   Partly Cloudy
8:36 PM 60.8 °F 55.4 °F 82% 29.90 in 10.0 mi West 10.4 mph - N/A   Mostly Cloudy
8:56 PM 60.8 °F 55.4 °F 82% 29.90 in 10.0 mi West 9.2 mph - N/A   Overcast
9:16 PM 59.0 °F 55.4 °F 88% 29.91 in 10.0 mi WSW 4.6 mph - N/A   Overcast
9:36 PM 57.2 °F 53.6 °F 88% 29.91 in 10.0 mi WSW 8.1 mph - N/A   Mostly Cloudy
9:56 PM 55.4 °F 51.8 °F 88% 29.92 in 10.0 mi SW 12.7 mph - N/A   Partly Cloudy
10:16 PM 57.2 °F 53.6 °F 88% 29.92 in 10.0 mi Calm Calm - N/A   Clear
10:36 PM 55.4 °F 51.8 °F 88% 29.93 in 10.0 mi SW 12.7 mph - N/A   Clear
10:56 PM 55.4 °F 51.8 °F 88% 29.93 in 10.0 mi NNW 3.5 mph - N/A   Clear
11:16 PM 55.4 °F 53.6 °F 94% 29.93 in 10.0 mi NNE 3.5 mph - N/A   Clear
11:36 PM 55.4 °F 51.8 °F 88% 29.93 in 10.0 mi ESE 5.8 mph - N/A   Clear
11:56 PM 51.8 °F 48.2 °F 88% 29.93 in 10.0 mi East 3.5 mph - N/A   Clear